2024/02/15 00:00:00,52.3, 2.4
2024/02/15 00:10:00,52.1, 2.2
2024/02/15 00:20:00,52.1, 2.4
2024/02/15 00:30:00,52.1, 2.3
2024/02/15 00:40:00,52.0, 2.2
2024/02/15 00:50:00,52.0, 1.5
2024/02/15 01:00:00,52.0, 2.2
2024/02/15 01:10:00,52.0, 2.2
2024/02/15 01:20:00,52.1, 2.3
2024/02/15 01:30:00,52.2, 1.9
2024/02/15 01:40:00,52.2, 2.4
2024/02/15 01:50:00,52.2, 2.6
2024/02/15 02:00:00,52.2, 1.8
2024/02/15 02:10:00,52.3, 2.3
2024/02/15 02:20:00,52.0, 2.0
2024/02/15 02:30:00,51.1, 2.1
2024/02/15 02:40:00,50.8, 2.4
2024/02/15 02:50:00,50.8, 2.1
2024/02/15 03:00:00,50.8, 2.5
2024/02/15 03:10:00,50.9, 2.3
2024/02/15 03:20:00,50.9, 2.2
2024/02/15 03:30:00,51.0, 2.2
2024/02/15 03:40:00,51.0, 2.2
2024/02/15 03:50:00,51.0, 2.4
2024/02/15 04:00:00,51.0, 2.1
2024/02/15 04:10:00,51.0, 2.4
2024/02/15 04:20:00,51.1, 2.3
2024/02/15 04:30:00,51.1, 2.2
2024/02/15 04:40:00,51.0, 2.6
2024/02/15 04:50:00,51.0, 2.4
2024/02/15 05:00:00,50.9, 2.5
2024/02/15 05:10:00,50.9, 2.5
2024/02/15 05:20:00,50.9, 2.3
2024/02/15 05:30:00,51.0, 2.2
2024/02/15 05:40:00,51.2, 2.3
2024/02/15 05:50:00,51.0, 2.1
2024/02/15 06:00:00,50.9, 2.2
2024/02/15 06:10:00,50.8, 2.3
2024/02/15 06:20:00,50.7, 2.2
2024/02/15 06:30:00,50.5, 2.1
2024/02/15 06:40:00,50.7, 2.3
2024/02/15 06:50:00,50.7, 2.2
2024/02/15 07:00:00,50.6, 2.4
2024/02/15 07:10:00,50.5, 2.1
2024/02/15 07:20:00,50.5, 2.1
2024/02/15 07:30:00,50.4, 2.3
2024/02/15 07:40:00,50.4, 2.1
2024/02/15 07:50:00,50.5, 2.3
2024/02/15 08:00:00,50.3, 2.5
2024/02/15 08:10:00,50.2, 2.6
2024/02/15 08:20:00,49.7, 3.3
2024/02/15 08:30:00,49.7, 2.7
2024/02/15 08:40:00,49.4, 3.1
2024/02/15 08:50:00,48.6, 3.6
2024/02/15 09:00:00,47.9, 5.0
2024/02/15 09:10:00,48.1, 4.9
2024/02/15 09:20:00,48.3, 4.4
2024/02/15 09:30:00,47.9, 4.7
2024/02/15 09:40:00,47.9, 5.0
2024/02/15 09:50:00,47.9, 5.1
2024/02/15 10:00:00,47.9, 5.1
2024/02/15 10:10:00,47.9, 4.8
2024/02/15 10:20:00,47.9, 4.7
2024/02/15 10:30:00,47.9, 5.4
2024/02/15 10:40:00,47.9, 5.5
2024/02/15 10:50:00,47.9, 5.5
2024/02/15 11:00:00,47.9, 5.9
2024/02/15 11:10:00,47.9, 6.3
2024/02/15 11:20:00,47.9, 5.6
2024/02/15 11:30:00,47.9, 5.9
2024/02/15 11:40:00,47.9, 4.7
2024/02/15 11:50:00,47.4, 4.6
2024/02/15 12:00:00,47.4, 4.7
2024/02/15 12:10:00,47.4, 4.6
2024/02/15 12:20:00,47.4, 4.4
2024/02/15 12:30:00,47.3, 4.3
2024/02/15 12:40:00,47.3, 4.0
2024/02/15 12:50:00,47.3, 4.0
2024/02/15 13:00:00,47.3, 4.6
2024/02/15 13:10:00,46.9, 4.4
2024/02/15 13:20:00,46.2, 4.6
2024/02/15 13:30:00,46.2, 4.3
2024/02/15 13:40:00,46.2, 4.9
2024/02/15 13:50:00,46.3, 5.0
2024/02/15 14:00:00,46.3, 5.1
2024/02/15 14:10:00,46.3, 5.3
2024/02/15 14:20:00,46.3, 6.9
2024/02/15 14:30:00,46.0, 6.3
2024/02/15 14:40:00,63.2, 5.7
2024/02/15 14:50:00,63.2, 5.6
2024/02/15 15:00:00,63.2, 5.9
2024/02/15 15:10:00,63.1, 5.5
2024/02/15 15:20:00,63.1, 5.0
2024/02/15 15:30:00,63.1, 5.0
2024/02/15 15:40:00,62.8, 4.6
2024/02/15 15:50:00,62.5, 4.2
2024/02/15 16:00:00,62.3, 4.4
2024/02/15 16:10:00,62.0, 4.2
2024/02/15 16:20:00,44.9, 3.9
2024/02/15 16:30:00,46.0, 3.9
2024/02/15 16:40:00,45.1, 3.8
2024/02/15 16:50:00,45.9, 3.2
2024/02/15 17:00:00,46.3, 3.3
2024/02/15 17:10:00,45.9, 3.6
2024/02/15 17:20:00,45.3, 3.5
2024/02/15 17:30:00,45.1, 3.1
2024/02/15 17:40:00,45.0, 2.9
2024/02/15 17:50:00,44.7, 2.9
2024/02/15 18:00:00,44.4, 3.2
2024/02/15 18:10:00,44.3, 2.9
2024/02/15 18:20:00,44.4, 3.2
2024/02/15 18:30:00,44.4, 3.2
2024/02/15 18:40:00,44.0, 3.1
2024/02/15 18:50:00,44.4, 3.1
2024/02/15 19:00:00,44.5, 2.8
2024/02/15 19:10:00,44.6, 2.9
2024/02/15 19:20:00,44.9, 2.5
2024/02/15 19:30:00,44.7, 2.9
2024/02/15 19:40:00,44.6, 2.9
2024/02/15 19:50:00,44.6, 2.9
2024/02/15 20:00:00,44.4, 2.5
2024/02/15 20:10:00,44.3, 4.3
2024/02/15 20:20:00,44.4, 4.0
2024/02/15 20:30:00,44.5, 3.0
2024/02/15 20:40:00,44.4, 2.4
2024/02/15 20:50:00,44.4, 3.4
2024/02/15 21:00:00,44.3, 3.1
2024/02/15 21:10:00,44.6, 2.8
2024/02/15 21:20:00,44.6, 2.5
2024/02/15 21:30:00,44.1, 2.0
2024/02/15 21:40:00,43.6, 2.3
2024/02/15 21:50:00,43.0, 1.8
2024/02/15 22:00:00,42.8, 1.9
2024/02/15 22:10:00,41.7, 2.2
2024/02/15 22:20:00,41.4, 1.8
2024/02/15 22:30:00,41.3, 1.4
2024/02/15 22:40:00,41.7, 1.4
2024/02/15 22:50:00,41.7, 1.5
2024/02/15 23:00:00,41.8, 1.2
2024/02/15 23:10:00,41.8, 0.9
2024/02/15 23:20:00,41.9, 0.8
2024/02/15 23:30:00,42.0, 0.6
2024/02/15 23:40:00,41.8, 0.6
2024/02/15 23:50:00,42.0, 0.2
